Weather History for Madera, CA

Change the Weather History Date:

Monday, October 8, 2012

  Actual Average Record
Temperature  
Mean Temperature 67 °F 67 °F  
Max Temperature 78 °F 83 °F 93 °F (2002)
Min Temperature 55 °F 51 °F 45 °F (2007)
Degree Days  
Heating Degree Days 0    
Month to date heating degree days 0  
Since 1 July heating degree days 0  
Cooling Degree Days 2    
Month to date cooling degree days 61  
Year to date cooling degree days 1705  
Growing Degree Days 16 (Base 50)    
Moisture  
Dew Point 47 °F    
Average Humidity 52    
Maximum Humidity 72    
Minimum Humidity 31    
Precipitation  
Precipitation 0.00 in 0.01 in 1.04 in (1973)
Month to date precipitation 0.00 0.07  
Year to date precipitation 6.22 8.36  
Since 1 July precipitation T 0.36  
Snow  
Snow 0.00 in - - ()
Month to date snowfall 0.0  
Since 1 July snowfall 0.0  
Since 1 September snowfall 0.0  
Snow Depth 0.00 in    
Sea Level Pressure  
Sea Level Pressure 29.97 in    
Wind  
Wind Speed 10 mph (NW)    
Max Wind Speed 14 mph    
Max Gust Speed 20 mph    
Visibility 10 miles    
Events      
T = Trace of Precipitation, MM = Missing Value Source: NWS Daily Summary

Daily Weather History Graph

Daily Weather History Graph

Search for Another Location

Airport:

Trip Planner

Search our weather history database for the weather conditions in past years. The results will help you decide how hot, cold, wet, or windy it might be!

Date:

Astronomy

Oct. 08, 2012 Rise Set
Actual Time 7:02 AM PDT 6:32 PM PDT
Civil Twilight 6:36 AM PDT 6:58 PM PDT
Nautical Twilight 6:06 AM PDT 7:28 PM PDT
Astronomical Twilight 5:36 AM PDT 7:58 PM PDT
Moon No Moon Rise 2:16 PM PDT (10/8)
Length of Visible Light 12h 22m
Length of Day
11h 30m
Last Quarter, 45% of the Moon is Illuminated
Oct 8
Last Quarter
Oct 15
New
Oct 21
First Quarter
Oct 29
Full
Nov 6
Last Quarter

Hourly Weather History & Observations

Time (PDT) Temp. Dew Point Humidity Pressure Visibility Wind Dir Wind Speed Gust Speed Precip Events Conditions
12:53 AM 63.0 °F 50.0 °F 63% 29.95 in 10.0 mi NW 9.2 mph - N/A   Clear
1:53 AM 61.0 °F 50.0 °F 67% 29.96 in 10.0 mi NW 11.5 mph - N/A   Clear
2:53 AM 60.1 °F 48.0 °F 64% 29.96 in 10.0 mi NW 12.7 mph - N/A   Clear
3:53 AM 60.1 °F 46.9 °F 62% 29.96 in 10.0 mi NW 10.4 mph - N/A   Clear
4:53 AM 59.0 °F 46.9 °F 64% 29.97 in 10.0 mi NW 9.2 mph - N/A   Clear
5:53 AM 55.9 °F 46.9 °F 72% 29.97 in 10.0 mi WNW 6.9 mph - N/A   Clear
6:53 AM 57.0 °F 46.9 °F 69% 29.98 in 10.0 mi NW 8.1 mph - N/A   Clear
7:53 AM 57.9 °F 46.9 °F 67% 29.99 in 10.0 mi NW 9.2 mph - N/A   Clear
8:53 AM 62.1 °F 48.0 °F 60% 30.01 in 10.0 mi WNW 10.4 mph - N/A   Clear
9:53 AM 66.0 °F 46.9 °F 50% 30.01 in 10.0 mi NNW 13.8 mph 19.6 mph N/A   Clear
10:53 AM 71.1 °F 46.0 °F 41% 30.01 in 10.0 mi WNW 9.2 mph 18.4 mph N/A   Clear
11:53 AM 73.0 °F 46.0 °F 38% 30.00 in 10.0 mi NW 11.5 mph 18.4 mph N/A   Clear
12:53 PM 73.9 °F 45.0 °F 35% 29.99 in 10.0 mi NW 10.4 mph - N/A   Clear
1:53 PM 77.0 °F 44.1 °F 31% 29.97 in 10.0 mi NNW 8.1 mph - N/A   Clear
2:53 PM 77.0 °F 46.0 °F 33% 29.96 in 10.0 mi NW 10.4 mph - N/A   Clear
3:53 PM 77.0 °F 46.0 °F 33% 29.95 in 10.0 mi WNW 8.1 mph - N/A   Clear
4:53 PM 77.0 °F 46.0 °F 33% 29.94 in 10.0 mi WNW 8.1 mph - N/A   Clear
5:53 PM 73.9 °F 46.0 °F 37% 29.94 in 10.0 mi NW 9.2 mph - N/A   Clear
6:53 PM 72.0 °F 45.0 °F 38% 29.95 in 10.0 mi NW 8.1 mph - N/A   Clear
7:53 PM 68.0 °F 46.0 °F 45% 29.96 in 10.0 mi NW 6.9 mph - N/A   Clear
8:53 PM 66.9 °F 46.9 °F 49% 29.98 in 10.0 mi NW 6.9 mph - N/A   Clear
10:53 PM 62.1 °F 48.9 °F 62% 30.00 in 10.0 mi WNW 6.9 mph - N/A   Clear
11:53 PM 61.0 °F 48.9 °F 64% 30.00 in 10.0 mi WNW 5.8 mph - N/A   Clear